"Pseudo-MPEC" for P21Cjut

Created 2022 Dec 14 6:22:12 UT using Find_Orb

Click here for an explanation of pseudo-MPECs

 
 Astrometry: 
     P21Cjut  C2022 11 16*LYi=)4^;%xO08ccT0j1HW8_SR`i?-Mlgpn^y\B;;tD%f.h@YQAjF52
     P21Cjut  C2022 11 16jDv@gN:bo10-dlO%a#JfiXTcP3oKX9RiLi+]GInWVY#_8dP+N_IYF52
     P21Cjut  C2022 11 16Lr**16,cO`=3ag[swnv7a;S#E9,*be1ZI;E`yI+9@r!a.t_Jv=?)F52
     P21Cjut  C2022 11 16AeB'I*F4oPcU,=X7VS0W:+St0)8OAstrometry33nU:r``,X/\B?F52
     P21Cjut* C2022 12 01B9wZoPD'E2x6v((;;tp/l0ISiYiex2$OFsZj%,g#v=_%C@qPd[SqF52
     P21Cjut  C2022 12 01J2a50sm`?g@credacted;AyobkZJ#Eugu:IN1M;r=KE0eQ_'M8P5F52
     P21Cjut  C2022 12 01ovo1FMMkH;@bItkdF.ils/0JHlwaBgV6gec:Vf/QN'M#5-o.YY?KF52
     P21Cjut  C2022 12 010Hw\f4I+w=bc'ml.mH51KKrtYiTl.Y#4'pHhsS@jo]qbOZ/Ro@#tF52
     P21Cjut  C2022 12 01mx.\,jeWXG2(o!H@kr$=Z-Qj_d=uW;)9G]]f;;g'C\'x_D1Z;kglF52
     P21Cjut  C2022 12 015'lDA19J%`clickbbWXn^U*e.CART!GC95$_5H'!;+!Gh[$ObV4(F52
     P21Cjut |C2022 12 02dWIpf%qfHd!LIkNhere*lijrD7:%;/XKw`iT0_t50`7t=w-k\S4L807
     P21Cjut |C2022 12 02%2=?7Y48_wRN,gQwgBq]_oj*QwWPtuB.0voNRDZofore:c[C4\)b807
     P21Cjut |C2022 12 02g4_+E;explanation6@7X(!.(J\Zn)Z1*wl'11cosP]36)(L#s^+807
     P21Cjut |C2022 12 14tlgE)!mE+'Vi$#pj43_aBtT%WZ(PrgK.JG0=G;yW^WZ.GnA,V9)*807
     P21Cjut |C2022 12 14G.a'klSX=rgAsQ^@l7x*oX8'YI7sRu@:]+OUdF'+g!\%A(qs2fRJ807
     P21Cjut |C2022 12 14(3]+J07E+,\a7epUex`,SvfNX]HjITn+g,kk\j!hMblY5XWPddLP807

Station data:
(807) Cerro Tololo Observatory, La Serena  (S30.169133 W70.805900)  Chile.
   Observer R. Holmes. 0.61-m f/6.5 astrograph + CCD.
(F52) Pan-STARRS 2, Haleakala  (N20.707382 W156.255910)  US/Hawaii.
   Observers J. Bulger, T. Dukes, T. Lowe, A. Schultz, M. Willman. Measurers
   K. Chambers, S. Chastel, T. de Boer, L. Denneau, J. Fairlamb, H.
   Flewelling, M. Huber, C.-C. Lin, E. Magnier, Y. Ramanjooloo, R. Wainscoat,
   R. Weryk. 1.8-m Ritchey-Chrétien + CCD.

Orbital elements:  P21Cjut
   Perihelion 2022 Dec 15.09519 +/- 9.34 TT =  2:17:04 (JD 2459928.59519)
Epoch 2022 Dec 14.0 TT = JDT 2459927.5   Ju: 0.2052              AutoNEOCP
M 359.90786319 +/- 0.7              (J2000 ecliptic)
n   0.08412846 +/- 2.7e-5           Peri.  287.93772 +/- 0.9
a   5.15830950 +/- 0.0011           Node   142.74278 +/- 0.018
e   0.0805310 +/- 0.000392          Incl.   29.75920 +/- 0.0038
P  11.72                   H 15.10  G  0.15   U  6.0
q 4.74290547 +/- 0.00103    Q 5.57371354 +/- 0.0032
From 16 observations 2022 Nov. 16-Dec. 14; mean residual 0".20
Residuals in arcseconds: 
221116 F52  .00   .05+    221201 F52  .06-  .30+    221202 807  .01-  .26-    
221116 F52  .26-  .19-    221201 F52  .19-  .24+    221214 807  .03-  .17+    
221116 F52  .04-  .15+    221201 F52  .00   .29+    221214 807  .10+  .19-    
221116 F52  .31+  .02-    221201 F52  .06-  .00     221214 807  .07-  .05+    
221201 F52  .45+  .09+    221202 807  .20-  .08-    
221201 F52  .32-  .01-    221202 807  .33+  .32-    

Ephemerides (geocentric):
Date (UTC) HH   RA             Dec           delta  r     elong  mag " sig PA
---- --------  ------------   ------------  ------ ------ -----  --- --------
2022 12 14 06  04 54 32.955   -12 34 36.62  3.9155 4.7429 143.5 22.0 .142   5
2022 12 14 07  04 54 31.554   -12 34 32.27  3.9156 4.7429 143.5 22.0 .143   5
2022 12 14 08  04 54 30.152   -12 34 27.91  3.9157 4.7429 143.5 22.0 .145   6
2022 12 14 09  04 54 28.752   -12 34 23.53  3.9158 4.7429 143.4 22.0 .146   6
2022 12 14 10  04 54 27.351   -12 34 19.13  3.9159 4.7429 143.4 22.0 .147   6
2022 12 14 11  04 54 25.951   -12 34 14.72  3.9160 4.7429 143.4 22.0 .149   6
2022 12 14 12  04 54 24.551   -12 34 10.29  3.9161 4.7429 143.4 22.0 .150   6
2022 12 14 13  04 54 23.152   -12 34 05.85  3.9162 4.7429 143.4 22.0 .152   6
2022 12 14 14  04 54 21.752   -12 34 01.38  3.9163 4.7429 143.4 22.0 .153   6
2022 12 14 15  04 54 20.354   -12 33 56.91  3.9164 4.7429 143.4 22.0 .155   6
2022 12 14 16  04 54 18.955   -12 33 52.41  3.9165 4.7429 143.4 22.0 .156   6
2022 12 14 17  04 54 17.557   -12 33 47.90  3.9166 4.7429 143.4 22.0 .158   6
2022 12 14 18  04 54 16.159   -12 33 43.38  3.9167 4.7429 143.3 22.0 .159   6
2022 12 14 19  04 54 14.761   -12 33 38.83  3.9168 4.7429 143.3 22.0 .160   7
2022 12 14 20  04 54 13.364   -12 33 34.28  3.9169 4.7429 143.3 22.0 .162   7
2022 12 14 21  04 54 11.967   -12 33 29.70  3.9170 4.7429 143.3 22.0 .163   7
2022 12 14 22  04 54 10.570   -12 33 25.11  3.9171 4.7429 143.3 22.0 .165   7
2022 12 14 23  04 54 09.174   -12 33 20.50  3.9173 4.7429 143.3 22.0 .166   7
2022 12 15 00  04 54 07.778   -12 33 15.88  3.9174 4.7429 143.3 22.0 .168   7
2022 12 15 01  04 54 06.383   -12 33 11.24  3.9175 4.7429 143.3 22.0 .169   7
2022 12 15 02  04 54 04.987   -12 33 06.58  3.9176 4.7429 143.2 22.0 .171   7
2022 12 15 03  04 54 03.593   -12 33 01.91  3.9177 4.7429 143.2 22.0 .172   7
2022 12 15 04  04 54 02.198   -12 32 57.22  3.9178 4.7429 143.2 22.0 .174   7
2022 12 15 05  04 54 00.804   -12 32 52.51  3.9179 4.7429 143.2 22.0 .175   7
2022 12 15 06  04 53 59.410   -12 32 47.79  3.9180 4.7429 143.2 22.0 .177   7
2022 12 15 07  04 53 58.016   -12 32 43.05  3.9181 4.7429 143.2 22.0 .179   7
2022 12 15 08  04 53 56.623   -12 32 38.30  3.9183 4.7429 143.2 22.0 .180   8
2022 12 15 09  04 53 55.230   -12 32 33.53  3.9184 4.7429 143.2 22.0 .182   8
2022 12 15 10  04 53 53.838   -12 32 28.74  3.9185 4.7429 143.1 22.0 .183   8
2022 12 15 11  04 53 52.446   -12 32 23.94  3.9186 4.7429 143.1 22.0 .185   8
2022 12 15 12  04 53 51.054   -12 32 19.12  3.9187 4.7429 143.1 22.0 .186   8
2022 12 15 13  04 53 49.663   -12 32 14.29  3.9188 4.7429 143.1 22.0 .188   8
2022 12 15 14  04 53 48.272   -12 32 09.43  3.9190 4.7429 143.1 22.0 .189   8
2022 12 15 15  04 53 46.881   -12 32 04.57  3.9191 4.7429 143.1 22.0 .191   8
2022 12 15 16  04 53 45.491   -12 31 59.68  3.9192 4.7429 143.1 22.0 .192   8
2022 12 15 17  04 53 44.101   -12 31 54.78  3.9193 4.7429 143.0 22.0 .194   8
2022 12 15 18  04 53 42.712   -12 31 49.87  3.9194 4.7429 143.0 22.0 .196   8
2022 12 15 19  04 53 41.322   -12 31 44.93  3.9195 4.7429 143.0 22.0 .197   8
2022 12 15 20  04 53 39.934   -12 31 39.98  3.9197 4.7429 143.0 22.0 .199   8
2022 12 15 21  04 53 38.545   -12 31 35.02  3.9198 4.7429 143.0 22.0 .200   8
2022 12 15 22  04 53 37.157   -12 31 30.04  3.9199 4.7429 143.0 22.0 .202   9
2022 12 15 23  04 53 35.769   -12 31 25.04  3.9200 4.7429 143.0 22.0 .203   9
2022 12 16 00  04 53 34.382   -12 31 20.03  3.9201 4.7429 143.0 22.0 .205   9
2022 12 16 01  04 53 32.995   -12 31 14.99  3.9203 4.7429 142.9 22.0 .207   9
2022 12 16 02  04 53 31.609   -12 31 09.95  3.9204 4.7429 142.9 22.0 .208   9
2022 12 16 03  04 53 30.223   -12 31 04.89  3.9205 4.7429 142.9 22.0 .210   9
2022 12 16 04  04 53 28.837   -12 30 59.81  3.9206 4.7429 142.9 22.0 .211   9
2022 12 16 05  04 53 27.452   -12 30 54.71  3.9207 4.7429 142.9 22.0 .213   9